TimeCDT,TemperatureF,Dew PointF,Humidity,Sea Level PressureIn,VisibilityMPH,Wind Direction,Wind SpeedMPH,Gust SpeedMPH,PrecipitationIn,Events,Conditions,WindDirDegrees,DateUTC
12:52 AM,70.0,66.0,87,30.07,10.0,South,5.8,-,N/A,,Mostly Cloudy,170,2012-10-12 05:52:00
1:52 AM,66.9,64.9,93,30.07,7.0,SSE,4.6,-,N/A,,Mostly Cloudy,150,2012-10-12 06:52:00
2:52 AM,68.0,66.0,93,30.05,6.0,SSE,9.2,-,N/A,,Scattered Clouds,150,2012-10-12 07:52:00
3:52 AM,68.0,66.0,93,30.04,6.0,SSE,9.2,-,N/A,,Scattered Clouds,160,2012-10-12 08:52:00
4:52 AM,68.0,66.2,94,30.06,6.0,SSE,9.2,-,N/A,,Mostly Cloudy,160,2012-10-12 09:52:00
5:10 AM,68.0,66.2,94,30.07,7.0,South,10.4,-,N/A,,Mostly Cloudy,180,2012-10-12 10:10:00
5:28 AM,68.0,66.2,94,30.08,9.0,SSE,9.2,-,N/A,,Overcast,160,2012-10-12 10:28:00
5:52 AM,69.1,66.9,93,30.05,10.0,South,11.5,-,N/A,,Overcast,180,2012-10-12 10:52:00
6:52 AM,70.0,68.0,93,30.09,10.0,SSW,10.4,-,N/A,,Overcast,200,2012-10-12 11:52:00
7:42 AM,71.6,68.0,88,30.15,10.0,NW,10.4,-,N/A,,Overcast,310,2012-10-12 12:42:00
7:47 AM,71.6,68.0,88,30.15,10.0,NNW,12.7,-,N/A,Thunderstorm,Thunderstorm,330,2012-10-12 12:47:00
7:52 AM,71.1,66.9,87,30.12,10.0,NNW,18.4,-,0.00,Rain-Thunderstorm,Light Thunderstorms and Rain,330,2012-10-12 12:52:00
8:03 AM,69.8,66.2,88,30.16,6.0,NNW,11.5,-,0.01,Rain-Thunderstorm,Light Thunderstorms and Rain,340,2012-10-12 13:03:00
8:21 AM,68.0,64.4,88,30.16,9.0,North,8.1,-,0.02,Rain,Light Rain,350,2012-10-12 13:21:00
8:52 AM,68.0,64.0,87,30.14,10.0,Calm,Calm,-,0.03,Rain,Light Rain,0,2012-10-12 13:52:00
9:27 AM,69.8,64.4,83,30.17,10.0,Calm,Calm,-,0.00,Rain,Light Rain,0,2012-10-12 14:27:00
9:36 AM,69.8,64.4,83,30.17,10.0,Calm,Calm,-,N/A,Rain,Light Rain,0,2012-10-12 14:36:00
9:52 AM,69.1,66.0,90,30.15,10.0,Calm,Calm,-,0.00,,Overcast,0,2012-10-12 14:52:00
10:52 AM,70.0,66.9,90,30.14,10.0,SSE,9.2,-,0.05,,Overcast,160,2012-10-12 15:52:00
11:52 AM,69.8,66.2,88,30.16,10.0,SSE,8.1,-,N/A,,Overcast,160,2012-10-12 16:52:00
12:52 PM,71.1,68.0,90,30.13,10.0,SE,5.8,-,N/A,,Overcast,140,2012-10-12 17:52:00
1:52 PM,73.4,69.8,88,30.13,10.0,SSE,3.5,-,N/A,,Overcast,150,2012-10-12 18:52:00
2:24 PM,73.4,68.0,83,30.13,10.0,SE,4.6,-,N/A,,Overcast,130,2012-10-12 19:24:00
2:52 PM,73.9,69.1,85,30.08,10.0,East,4.6,-,N/A,,Overcast,100,2012-10-12 19:52:00
3:52 PM,73.0,68.0,84,30.06,10.0,ENE,9.2,-,N/A,,Overcast,70,2012-10-12 20:52:00
3:59 PM,73.4,68.0,83,30.09,10.0,ENE,10.4,-,N/A,,Overcast,70,2012-10-12 20:59:00
4:52 PM,73.9,68.0,82,30.04,10.0,East,11.5,-,N/A,,Mostly Cloudy,80,2012-10-12 21:52:00
5:09 PM,73.4,68.0,83,30.07,10.0,East,8.1,-,N/A,,Mostly Cloudy,80,2012-10-12 22:09:00
5:52 PM,73.9,68.0,82,30.04,10.0,East,11.5,-,N/A,,Overcast,80,2012-10-12 22:52:00
6:32 PM,71.6,66.2,83,30.07,10.0,East,12.7,-,N/A,,Overcast,90,2012-10-12 23:32:00
6:52 PM,71.1,66.9,87,30.04,10.0,East,10.4,-,N/A,,Overcast,90,2012-10-12 23:52:00
7:52 PM,69.1,66.0,90,30.03,10.0,ESE,11.5,-,0.00,Rain,Light Rain,120,2012-10-13 00:52:00
8:52 PM,68.0,64.9,90,30.03,10.0,SE,12.7,-,0.00,,Mostly Cloudy,140,2012-10-13 01:52:00
9:52 PM,66.2,64.4,94,30.05,10.0,SSE,8.1,-,N/A,,Scattered Clouds,150,2012-10-13 02:52:00
10:52 PM,71.1,64.9,81,30.00,10.0,South,13.8,-,N/A,,Mostly Cloudy,170,2012-10-13 03:52:00
11:52 PM,73.4,64.4,73,30.03,10.0,South,19.6,28.8,N/A,,Mostly Cloudy,170,2012-10-13 04:52:00